NT2C Weather Reports


Display with metric or nautical units.
time (UTC)temp
F
wind
direction
speed
MPH
gust
MPH
rain 1hr
in
rain 24hr
in
rain mn
in
humidity
%
barometer
mb
20260903192008 88 336 1.0 4.0 0.00 0.00 0.00 74 1008.0
20260903191509 88 251 1.0 3.0 0.00 0.00 0.00 73 1008.0
20260903191010 88 215 0.0 5.0 0.00 0.00 0.00 74 1008.0
20260903190508 88 226 2.0 5.0 0.00 0.00 0.00 73 1007.9
20260903190007 88 246 0.0 5.0 0.00 0.00 0.00 74 1007.9
20260903185511 88 235 2.0 5.0 0.00 0.00 0.00 73 1008.0
20260903185006 88 229 0.0 3.0 0.00 0.00 0.00 73 1008.2
20260903184505 88 226 1.0 5.0 0.00 0.00 0.00 73 1008.2
20260903184008 88 219 1.0 5.0 0.00 0.00 0.00 73 1008.3
20260903183503 88 224 0.0 4.0 0.00 0.00 0.00 74 1008.2
20260903183002 87 203 0.0 4.0 0.00 0.00 0.00 74 1008.3
20260903182503 87 226 1.0 4.0 0.00 0.00 0.00 74 1008.5
20260903182000 87 328 0.0 2.0 0.00 0.00 0.00 74 1008.7
20260903181604 87 352 0.0 2.0 0.00 0.00 0.00 74 1008.7
20260903181100 87 217 0.0 4.0 0.00 0.00 0.00 74 1008.7
20260903180603 87 297 1.0 4.0 0.00 0.00 0.00 74 1008.8
20260903175602 87 69 0.0 4.0 0.00 0.00 0.00 75 1009.0
20260903175059 87 2 1.0 4.0 0.00 0.00 0.00 74 1009.0
20260903174559 87 70 0.0 5.0 0.00 0.00 0.00 75 1009.0
20260903174101 86 61 0.0 5.0 0.00 0.00 0.00 76 1009.1
20260903173558 86 297 1.0 6.0 0.00 0.00 0.00 75 1009.2
20260903173058 87 283 1.0 6.0 0.00 0.00 0.00 75 1009.3
20260903172557 87 254 1.0 6.0 0.00 0.00 0.00 75 1009.4
20260903172100 86 286 1.0 6.0 0.00 0.00 0.00 77 1009.6
20260903171602 85 45 0.0 5.0 0.00 0.00 0.00 77 1009.6
20260903171058 85 296 2.0 5.0 0.00 0.00 0.00 77 1009.7
20260903170553 85 328 2.0 5.0 0.00 0.00 0.00 77 1009.8
20260903170053 84 295 0.0 5.0 0.00 0.00 0.00 78 1009.8
20260903165553 84 348 1.0 5.0 0.00 0.00 0.00 77 1010.0
20260903165051 84 286 0.0 3.0 0.00 0.00 0.00 78 1009.9
20260903164552 84 283 0.0 3.0 0.00 0.00 0.00 77 1009.9
20260903164052 84 243 0.0 3.0 0.00 0.00 0.00 77 1009.7
20260903163552 84 253 0.0 2.0 0.00 0.00 0.00 77 1009.9
20260903163050 84 253 0.0 3.0 0.00 0.00 0.00 77 1009.8
20260903162552 84 231 0.0 3.0 0.00 0.00 0.00 78 1010.0
20260903162051 84 219 0.0 4.0 0.00 0.00 0.00 78 1010.0
20260903161549 84 219 0.0 2.0 0.00 0.00 0.00 80 1010.1
20260903161049 83 136 0.0 3.0 0.00 0.00 0.00 80 1010.3
20260903160547 83 44 0.0 3.0 0.00 0.00 0.00 80 1010.3
20260903160046 82 223 0.0 5.0 0.00 0.00 0.00 82 1010.3
20260903155544 81 234 2.0 5.0 0.00 0.00 0.00 82 1010.4
20260903155045 81 299 1.0 3.0 0.00 0.00 0.00 82 1010.3
20260903154543 80 223 0.0 4.0 0.00 0.00 0.00 85 1010.5
20260903154043 79 319 1.0 5.0 0.00 0.00 0.00 84 1010.6
20260903153542 79 314 1.0 5.0 0.00 0.00 0.00 85 1010.6
20260903153040 79 349 2.0 6.0 0.00 0.00 0.00 85 1010.6
20260903152541 79 295 2.0 6.0 0.00 0.00 0.00 86 1010.6
20260903152041 79 352 0.0 4.0 0.00 0.00 0.00 86 1010.6
20260903151539 78 316 1.0 4.0 0.00 0.00 0.00 87 1010.5
20260903151038 78 287 1.0 4.0 0.00 0.00 0.00 87 1010.4
20260903150537 78 316 1.0 4.0 0.00 0.00 0.00 87 1010.3
20260903150046 78 264 0.0 3.0 0.00 0.00 0.00 89 1010.2
20260903145534 77 252 1.0 3.0 0.00 0.00 0.00 89 1010.2
20260903145035 77 304 0.0 4.0 0.00 0.00 0.00 91 1010.1
20260903144540 76 238 1.0 4.0 0.00 0.00 0.00 93 1010.1
20260903144030 76 220 0.0 1.0 0.00 0.00 0.00 93 1010.1
20260903143530 75 74 0.0 1.0 0.00 0.00 0.00 93 1010.0
20260903143038 75 74 0.0 3.0 0.00 0.00 0.00 94 1010.1
20260903142529 75 73 0.0 3.0 0.00 0.00 0.00 94 1010.2
20260903142028 75 35 0.0 3.0 0.00 0.00 0.00 94 1010.1
20260903141534 75 50 0.0 3.0 0.00 0.00 0.00 94 1010.1
20260903141031 75 51 0.0 3.0 0.00 0.00 0.00 94 1010.1
20260903140528 75 115 0.0 4.0 0.00 0.00 0.00 95 1010.2
20260903140027 75 296 0.0 5.0 0.00 0.00 0.00 94 1010.1
20260903135525 75 22 0.0 4.0 0.00 0.00 0.00 94 1010.1
20260903135026 75 63 0.0 1.0 0.00 0.00 0.00 95 1010.2
20260903134537 74 63 0.0 4.0 0.00 0.00 0.00 95 1010.0
20260903134021 74 64 0.0 4.0 0.00 0.00 0.00 95 1010.0
20260903133525 74 297 0.0 4.0 0.00 0.00 0.00 95 1010.1
20260903133120 74 325 0.0 4.0 0.00 0.00 0.00 95 1010.1
20260903132519 74 2 0.0 4.0 0.00 0.00 0.00 95 1010.2
20260903132017 74 64 0.0 4.0 0.00 0.00 0.00 95 1010.3
20260903131516 74 100 0.0 5.0 0.00 0.00 0.00 95 1010.3
20260903131015 74 55 1.0 5.0 0.00 0.00 0.00 95 1010.3
20260903130514 74 68 0.0 3.0 0.00 0.00 0.00 95 1010.5
20260903130012 74 120 0.0 6.0 0.00 0.00 0.00 96 1010.5
20260903125510 73 58 1.0 6.0 0.00 0.00 0.00 95 1010.6
20260903125009 73 110 0.0 4.0 0.00 0.00 0.00 96 1010.6
20260903124508 73 288 1.0 6.0 0.00 0.00 0.00 96 1010.7
20260903124007 73 293 0.0 6.0 0.00 0.00 0.00 96 1010.7
20260903123506 73 58 2.0 7.0 0.00 0.00 0.00 96 1010.6
20260903123002 73 78 3.0 7.0 0.00 0.00 0.00 95 1010.7
20260903122502 73 34 3.0 7.0 0.00 0.00 0.00 95 1010.5
20260903122059 73 32 3.0 7.0 0.00 0.00 0.00 95 1010.7
20260903121558 73 25 1.0 4.0 0.00 0.00 0.00 95 1010.2
20260903121057 73 67 0.0 3.0 0.00 0.00 0.00 95 1010.1
20260903120600 73 316 0.0 3.0 0.00 0.00 0.00 96 1010.1
20260903120055 73 238 0.0 1.0 0.00 0.00 0.00 96 1009.9
20260903115552 73 238 0.0 0.0 0.00 0.00 0.00 95 1009.9
20260903115051 73 238 0.0 0.0 0.00 0.00 0.00 96 1009.8
20260903114551 72 238 0.0 0.0 0.00 0.00 0.00 96 1009.9
20260903114052 72 238 0.0 0.0 0.00 0.00 0.00 95 1009.8
20260903113547 72 238 0.0 0.0 0.00 0.00 0.00 95 1009.7
20260903113046 72 238 0.0 0.0 0.00 0.00 0.00 95 1009.7
20260903112546 72 238 0.0 0.0 0.00 0.00 0.00 95 1009.6
20260903112044 72 238 0.0 0.0 0.00 0.00 0.00 95 1009.6
20260903111543 72 238 0.0 0.0 0.00 0.00 0.00 95 1009.5
20260903111045 72 238 0.0 0.0 0.00 0.00 0.00 95 1009.3
20260903110542 72 238 0.0 0.0 0.00 0.00 0.00 95 1009.2
20260903110040 72 238 0.0 1.0 0.00 0.00 0.00 95 1009.0
20260903105543 72 238 0.0 2.0 0.00 0.00 0.00 95 1009.0
20260903105041 71 238 0.0 2.0 0.00 0.00 0.00 95 1008.9
20260903104544 71 245 0.0 1.0 0.00 0.00 0.00 95 1008.8
20260903104040 71 237 0.0 1.0 0.00 0.00 0.00 95 1008.8
20260903103543 71 237 0.0 1.0 0.00 0.00 0.00 95 1008.7
20260903103039 71 240 0.0 1.0 0.00 0.00 0.00 95 1008.7
20260903102539 71 243 0.0 1.0 0.00 0.00 0.00 95 1008.6
20260903102037 71 231 0.0 0.0 0.00 0.00 0.00 95 1008.7
20260903101539 71 222 0.0 1.0 0.00 0.00 0.00 95 1008.7
20260903101037 71 260 0.0 1.0 0.00 0.00 0.00 95 1008.7
20260903100537 71 260 0.0 1.0 0.00 0.00 0.00 95 1008.5
20260903100036 71 260 0.0 1.0 0.00 0.00 0.00 95 1008.7
20260903095535 71 260 0.0 0.0 0.00 0.00 0.00 95 1008.9
20260903095034 71 262 0.0 0.0 0.00 0.00 0.00 95 1008.9
20260903094539 71 262 0.0 0.0 0.00 0.00 0.00 95 1009.0
20260903094033 71 262 0.0 0.0 0.00 0.00 0.00 95 1009.1
20260903093531 71 262 0.0 1.0 0.00 0.00 0.00 95 1009.2
20260903093047 71 262 0.0 1.0 0.00 0.00 0.00 95 1009.2
20260903092533 71 260 0.0 1.0 0.00 0.00 0.00 95 1009.2
20260903092031 71 260 0.0 0.0 0.00 0.00 0.00 95 1009.0
20260903091529 71 260 0.0 0.0 0.00 0.00 0.00 95 1009.1
20260903091029 71 260 0.0 0.0 0.00 0.00 0.00 95 1009.1
20260903090530 71 260 0.0 1.0 0.00 0.00 0.00 95 1009.1
20260903090034 71 260 0.0 1.0 0.00 0.00 0.00 95 1009.1
20260903085529 71 260 0.0 0.0 0.00 0.00 0.00 95 1009.0
20260903085028 71 260 0.0 0.0 0.00 0.00 0.00 95 1009.0
20260903084528 71 260 0.0 1.0 0.00 0.00 0.00 94 1008.9
20260903084029 71 260 0.0 1.0 0.00 0.00 0.00 94 1008.9
20260903083528 71 260 0.0 1.0 0.00 0.00 0.00 94 1008.9
20260903083028 72 260 0.0 1.0 0.00 0.00 0.00 95 1008.9
20260903082530 71 260 0.0 0.0 0.00 0.00 0.00 94 1008.9
20260903082029 71 260 0.0 0.0 0.00 0.00 0.00 94 1008.8
20260903081539 71 260 0.0 0.0 0.00 0.00 0.00 94 1008.9
20260903081026 71 260 0.0 0.0 0.00 0.00 0.00 94 1008.8
20260903080527 71 260 0.0 0.0 0.00 0.00 0.00 94 1008.8
20260903080027 71 261 0.0 0.0 0.00 0.00 0.00 94 1008.7
20260903075530 72 261 0.0 1.0 0.00 0.00 0.00 94 1008.9
20260903075028 72 260 0.0 1.0 0.00 0.00 0.00 94 1008.9
20260903074527 72 259 0.0 1.0 0.00 0.00 0.00 94 1008.8
20260903074026 72 208 0.0 2.0 0.00 0.00 0.00 94 1008.7
20260903073527 72 202 0.0 2.0 0.00 0.00 0.00 94 1008.7
20260903073030 72 231 0.0 2.0 0.00 0.00 0.00 94 1008.7
20260903072525 72 215 0.0 2.0 0.00 0.00 0.00 94 1008.6
20260903072027 72 243 0.0 2.0 0.00 0.00 0.00 94 1008.5
20260903071527 72 226 0.0 1.0 0.00 0.00 0.00 94 1008.6
20260903071026 72 207 0.0 1.0 0.00 0.00 0.00 94 1008.5
20260903070524 72 199 0.0 1.0 0.00 0.00 0.00 94 1008.5
20260903070023 72 228 0.0 1.0 0.00 0.00 0.00 94 1008.6
20260903065524 72 228 0.0 1.0 0.00 0.00 0.00 94 1008.7
20260903065025 72 149 0.0 1.0 0.00 0.00 0.00 94 1008.7
20260903064522 72 58 0.0 1.0 0.00 0.00 0.00 94 1008.9
20260903064022 72 57 0.0 1.0 0.00 0.00 0.00 94 1009.0
20260903063521 72 58 0.0 0.0 0.00 0.00 0.00 94 1008.9
20260903063020 72 28 0.0 1.0 0.00 0.00 0.00 94 1008.9
20260903062519 72 28 0.0 1.0 0.00 0.00 0.00 94 1009.0
20260903062018 72 28 0.0 0.0 0.00 0.00 0.00 94 1009.3
20260903061517 72 28 0.0 0.0 0.00 0.00 0.00 93 1009.3
20260903061016 72 28 0.0 0.0 0.00 0.00 0.00 93 1009.4
20260903060517 72 28 0.0 0.0 0.00 0.00 0.00 93 1009.4
20260903060018 72 28 0.0 0.0 0.00 0.00 0.00 93 1009.4
20260903055516 72 28 0.0 0.0 0.00 0.00 0.00 93 1009.6
20260903055014 72 28 0.0 0.0 0.00 0.00 0.00 93 1009.6
20260903054515 72 28 0.0 0.0 0.00 0.00 0.00 93 1009.8
20260903054015 72 28 0.0 0.0 0.00 0.00 0.00 93 1009.8
20260903053517 72 28 0.0 0.0 0.00 0.00 0.00 93 1009.9
20260903053012 72 28 0.0 0.0 0.00 0.00 0.00 93 1009.8
20260903052513 72 28 0.0 0.0 0.00 0.00 0.00 93 1009.8
20260903052013 72 28 0.0 0.0 0.00 0.00 0.00 92 1009.8
20260903051511 72 28 0.0 0.0 0.00 0.00 0.00 92 1009.9
20260903051011 72 28 0.0 0.0 0.00 0.00 0.00 92 1009.8
20260903050511 72 28 0.0 0.0 0.00 0.00 0.00 92 1009.9
20260903050011 72 28 0.0 0.0 0.00 0.00 0.00 92 1010.0
20260903045511 72 28 0.0 0.0 0.00 0.00 0.00 92 1010.0
20260903045009 72 28 0.0 0.0 0.00 0.00 0.00 92 1010.0
20260903044508 72 28 0.0 0.0 0.00 0.00 0.00 92 1010.1
20260903044008 72 28 0.0 0.0 0.00 0.00 0.00 92 1010.1
20260903043510 72 28 0.0 0.0 0.00 0.00 0.00 92 1009.9
20260903043009 72 28 0.0 0.0 0.00 0.00 0.00 92 1010.0
20260903042503 72 28 0.0 0.0 0.00 0.00 0.00 92 1010.0
20260903042002 72 28 0.0 0.0 0.00 0.00 0.00 92 1009.9
20260903041502 72 28 0.0 1.0 0.00 0.00 0.00 92 1009.9
20260903041101 73 28 0.0 1.0 0.00 0.00 0.00 92 1009.9
20260903040558 73 26 0.0 0.0 0.00 0.00 0.00 92 1009.9
20260903040103 73 26 0.0 1.0 0.00 0.00 0.00 92 1009.9
20260903035556 73 26 0.0 1.0 0.00 0.00 0.00 92 1009.9
20260903035056 73 26 0.0 1.0 0.00 0.00 0.00 91 1010.1
20260903034556 72 26 0.0 1.0 0.00 0.00 0.00 91 1010.0
20260903034057 72 221 0.0 0.0 0.00 0.00 0.00 91 1009.9
20260903033556 73 221 0.0 0.0 0.00 0.00 0.00 91 1009.9
20260903033055 73 221 0.0 0.0 0.00 0.00 0.00 91 1009.8
20260903032555 73 221 0.0 0.0 0.00 0.00 0.00 91 1009.7
20260903032054 72 221 0.0 0.0 0.00 0.00 0.00 91 1009.6
20260903031558 73 221 0.0 0.0 0.00 0.00 0.00 90 1009.3
20260903031055 73 221 0.0 0.0 0.00 0.00 0.00 90 1009.4
20260903030554 73 221 0.0 0.0 0.00 0.00 0.00 90 1009.4
20260903030054 73 221 0.0 0.0 0.00 0.00 0.00 90 1009.4
20260903025554 73 221 0.0 0.0 0.00 0.00 0.00 90 1009.4
20260903025053 73 221 0.0 0.0 0.00 0.00 0.00 90 1009.4
20260903024553 73 221 0.0 0.0 0.00 0.00 0.00 90 1009.2
20260903024053 73 221 0.0 0.0 0.00 0.00 0.00 89 1009.0
20260903023554 73 221 0.0 0.0 0.00 0.00 0.00 89 1009.0
20260903023105 73 221 0.0 0.0 0.00 0.00 0.00 89 1009.0
20260903022550 73 221 0.0 0.0 0.00 0.00 0.00 89 1009.0
20260903022053 73 221 0.0 0.0 0.00 0.00 0.00 89 1009.0
20260903021551 73 221 0.0 0.0 0.00 0.00 0.00 89 1009.0
20260903021049 74 221 0.0 0.0 0.00 0.00 0.00 88 1009.2
20260903020551 74 221 0.0 0.0 0.00 0.00 0.00 88 1009.4
20260903020049 74 221 0.0 0.0 0.00 0.00 0.00 88 1009.6
20260903015549 74 221 0.0 0.0 0.00 0.00 0.00 87 1009.4
20260903015048 74 221 0.0 0.0 0.00 0.00 0.00 87 1009.4
20260903014548 74 221 0.0 0.0 0.00 0.00 0.00 87 1009.6
20260903014047 74 221 0.0 0.0 0.00 0.00 0.00 87 1009.6
20260903013551 74 219 0.0 0.0 0.00 0.00 0.00 87 1009.6
20260903013049 75 219 0.0 0.0 0.00 0.00 0.00 87 1009.4
20260903012550 75 220 0.0 0.0 0.00 0.00 0.00 86 1009.5
20260903012045 75 220 0.0 0.0 0.00 0.00 0.00 86 1009.6
20260903011545 75 219 0.0 0.0 0.00 0.00 0.00 86 1009.4
20260903011045 75 219 0.0 0.0 0.00 0.00 0.00 86 1009.5
20260903010544 75 214 0.0 0.0 0.00 0.00 0.00 86 1009.8
20260903010044 75 276 0.0 0.0 0.00 0.00 0.00 86 1009.9
20260903005545 75 276 0.0 0.0 0.00 0.00 0.00 86 1009.9
20260903005043 75 40 0.0 0.0 0.00 0.00 0.00 86 1009.7
20260903004544 75 40 0.0 0.0 0.00 0.00 0.00 85 1009.8
20260903004044 75 40 0.0 1.0 0.00 0.00 0.00 85 1009.8
20260903003545 75 250 0.0 0.0 0.00 0.00 0.00 85 1009.9
20260903003050 76 250 0.0 0.0 0.00 0.00 0.00 84 1009.5
20260903002543 76 250 0.0 0.0 0.00 0.00 0.00 84 1009.3
20260903002047 75 250 0.0 0.0 0.00 0.00 0.00 85 1009.3
20260903001543 76 250 0.0 0.0 0.00 0.00 0.00 84 1009.3
20260903001043 76 250 0.0 0.0 0.00 0.00 0.00 84 1009.5
20260903000543 75 247 0.0 0.0 0.00 0.00 0.00 84 1009.4
20260903000042 76 247 0.0 1.0 0.00 0.00 0.00 85 1009.2
20260902235542 76 248 0.0 1.0 0.00 0.00 0.00 84 1009.6
20260902235042 76 238 0.0 1.0 0.00 0.00 0.00 84 1009.4
20260902234542 76 225 0.0 0.0 0.00 0.00 0.00 84 1009.0
20260902234044 76 224 0.0 0.0 0.00 0.00 0.00 84 1009.0
20260902233542 76 224 0.0 1.0 0.00 0.00 0.00 84 1009.3
20260902233041 77 225 0.0 1.0 0.00 0.00 0.00 84 1009.5
20260902232540 77 224 0.0 0.0 0.00 0.00 0.00 84 1009.7
20260902232040 77 224 0.0 0.0 0.00 0.00 0.00 83 1009.6
20260902231555 77 224 0.0 0.0 0.00 0.00 0.00 83 1009.8
20260902231041 77 224 0.0 1.0 0.00 0.00 0.00 83 1010.0
20260902230541 77 224 0.0 1.0 0.00 0.00 0.00 83 1010.1
20260902230041 77 225 0.0 1.0 0.00 0.00 0.00 82 1010.3
20260902225540 77 209 0.0 1.0 0.00 0.00 0.00 82 1010.4
20260902225040 77 209 0.0 1.0 0.00 0.00 0.00 82 1010.2
20260902224540 77 238 0.0 1.0 0.00 0.00 0.00 82 1010.2
20260902224039 77 238 0.0 1.0 0.00 0.00 0.00 82 1010.2
20260902223541 77 236 0.0 1.0 0.00 0.00 0.00 82 1010.2
20260902223039 77 242 0.0 0.0 0.00 0.00 0.00 82 1010.4
20260902222541 77 242 0.0 0.0 0.00 0.00 0.00 82 1010.3
20260902222039 77 242 0.0 1.0 0.00 0.00 0.00 83 1010.4
20260902221550 77 211 0.0 1.0 0.00 0.00 0.00 83 1010.5
20260902221039 77 158 0.0 1.0 0.00 0.00 0.00 83 1010.1
20260902220539 77 143 0.0 1.0 0.00 0.00 0.00 82 1009.7
20260902220042 77 143 0.0 0.0 0.00 0.00 0.00 82 1009.8
20260902215539 77 204 0.0 0.0 0.00 0.00 0.00 82 1009.7
20260902215038 78 230 0.0 1.0 0.00 0.00 0.00 82 1009.8
20260902214544 78 230 0.0 1.0 0.00 0.00 0.00 81 1009.9
20260902214038 78 231 0.0 1.0 0.00 0.00 0.00 81 1009.7
20260902213537 78 118 0.0 1.0 0.00 0.00 0.00 81 1009.5
20260902213048 78 119 0.0 1.0 0.00 0.00 0.00 81 1009.5
20260902212537 78 119 0.0 1.0 0.00 0.00 0.00 81 1009.8
20260902212037 78 119 0.0 1.0 0.00 0.00 0.00 81 1009.8
20260902211537 78 120 0.0 1.0 0.00 0.00 0.00 81 1010.0
20260902211036 78 120 0.0 1.0 0.00 0.00 0.00 81 1010.2
20260902210536 78 120 0.0 1.0 0.00 0.00 0.00 80 1010.0
20260902210039 78 120 0.0 1.0 0.00 0.00 0.00 80 1010.2
20260902205536 79 88 0.0 1.0 0.00 0.00 0.00 80 1010.3
20260902205036 79 246 0.0 4.0 0.00 0.00 0.00 79 1010.5
20260902204536 79 246 0.0 4.0 0.00 0.00 0.00 79 1010.6
20260902204035 79 225 0.0 2.0 0.00 0.00 0.00 79 1010.4
20260902203535 79 101 1.0 7.0 0.00 0.00 0.00 78 1010.3
20260902203038 80 115 1.0 7.0 0.00 0.00 0.00 78 1010.4
20260902202535 80 108 0.0 2.0 0.00 0.00 0.00 78 1010.4
20260902202035 80 118 0.0 4.0 0.00 0.00 0.00 78 1010.7
20260902201534 81 114 0.0 4.0 0.00 0.00 0.00 77 1010.6
20260902201034 81 81 0.0 4.0 0.00 0.00 0.00 77 1010.7
20260902200534 81 105 1.0 6.0 0.00 0.00 0.00 77 1010.5
20260902200034 81 113 2.0 6.0 0.00 0.00 0.00 76 1010.7
20260902195535 81 117 1.0 4.0 0.00 0.00 0.00 77 1010.6
20260902195034 81 103 1.0 3.0 0.00 0.00 0.00 76 1010.8
20260902194536 82 103 1.0 8.0 0.00 0.00 0.00 76 1011.1
20260902194037 82 135 2.0 12.0 0.00 0.00 0.00 76 1010.7
20260902193534 83 84 4.0 15.0 0.00 0.00 0.00 75 1011.0
20260902193035 83 63 4.0 15.0 0.00 0.00 0.00 74 1010.9
20260902192532 84 77 4.0 18.0 0.00 0.00 0.00 73 1010.8